Location: Beutels
(47.8767°N, 9.8584°E)
Time: 19:17:06
(UTC+00:00)

SWARM A - Pass Details

Date: 19 May 2025
Orbit: 436 x 441 km, 87.3° (Epoch: 20 June)

Event Time Altitude Azimuth Distance (km) Brightness Sun altitude
Exits shadow 20:49:26 29° 155° (SSE) 838 5.1 -14.5°
Maximum altitude 20:50:54 57° 89° (E) 529 4.4 -14.7°
Drops below altitude 10° 20:54:15 10° 10° (N) 1,575 7.7 -15.0°
Sets 20:56:20 0° 6° (N) 2,451 8.9 -15.2°
